Powrót do katalogu

FENGYUN 1C DEB

AktywnySSO
NORAD 31902·DEBRIS·🇨🇳 China

Wystrzelony May 10, 1999 z Taiyuan Satellite Launch Center

Loading…

Następne Przeloty (najbliższe 24 godziny)

TLE

ŚwieżeSource: Space-Track

Epoka: Sep 14, 2026, 09:52 UTC

1 31902U 99025CLD 26257.41169811  .00000510  00000-0  20502-3 0  9991
2 31902  98.5370 233.8695 0180733  65.9795  84.4772 14.23667157687137

Śledź FENGYUN 1C DEB w czasie rzeczywistym z AllMySat

Download on the App Store